This is the latest recevied weather packets stored in our database for station/object KC4JIR. If no packets are shown the sender has not sent any weather packets the latest 1 day(s).
| Time | Temp. | Humidity | Pressure | Rain* | Wind** | Luminosity | Snow |
|---|---|---|---|---|---|---|---|
| 1778005108 | 27.78° C | 48% | 1013.4 hPa | 0 mm | 0.45 m/s, 214° | 110 W/m² | - |
| 1778004805 | 27.78° C | 47% | 1013.7 hPa | 0 mm | 0.45 m/s, 299° | 734 W/m² | - |
| 1778004502 | 27.22° C | 53% | 1013.4 hPa | 0 mm | 0.45 m/s, 68° | 221 W/m² | - |
| 1778004198 | 27.22° C | 50% | 1013.6 hPa | 0 mm | 0.45 m/s, 93° | 748 W/m² | - |
| 1778003895 | 27.22° C | 47% | 1013.5 hPa | 0 mm | 1.34 m/s, 163° | 728 W/m² | - |
| 1778003591 | 27.22° C | 47% | 1013.7 hPa | 0 mm | 0.45 m/s, 123° | 548 W/m² | - |
| 1778003288 | 26.67° C | 51% | 1013.8 hPa | 0 mm | 0.89 m/s, 23° | 736 W/m² | - |
| 1778002985 | 26.11° C | 50% | 1013.7 hPa | 0 mm | 0 m/s | 636 W/m² | - |
| 1778002681 | 26.67° C | 48% | 1013.7 hPa | 0 mm | 0.89 m/s, 111° | 138 W/m² | - |
| 1778002378 | 26.67° C | 47% | 1013.9 hPa | 0 mm | 0.45 m/s, 337° | 804 W/m² | - |
| 1778002075 | 26.67° C | 45% | 1013.8 hPa | 0 mm | 1.79 m/s, 291° | 802 W/m² | - |
| 1778001772 | 26.11° C | 47% | 1013.8 hPa | 0 mm | 0.45 m/s, 168° | 732 W/m² | - |
| 1778001467 | 25.56° C | 49% | 1014.1 hPa | 0 mm | 1.34 m/s, 239° | 699 W/m² | - |
| 1778001164 | 26.67° C | 51% | 1013.9 hPa | 0 mm | 0.89 m/s, 267° | 122 W/m² | - |
| 1778000860 | 27.22° C | 50% | 1014.1 hPa | 0 mm | 0.89 m/s, 231° | 498 W/m² | - |
| 1778000558 | 26.11° C | 52% | 1013.9 hPa | 0 mm | 0.45 m/s, 86° | 830 W/m² | - |
| 1778000252 | 26.67° C | 52% | 1014 hPa | 0 mm | 1.79 m/s, 172° | 828 W/m² | - |
| 1777999949 | 26.11° C | 53% | 1014.4 hPa | 0 mm | 0.89 m/s, 4° | 766 W/m² | - |
| 1777999644 | 26.11° C | 53% | 1014.1 hPa | 0 mm | 1.79 m/s, 240° | 742 W/m² | - |
| 1777999342 | 26.67° C | 52% | 1014.1 hPa | 0 mm | 0.89 m/s, 168° | 727 W/m² | - |
| 1777999040 | 26.67° C | 55% | 1014.1 hPa | 0 mm | 0 m/s | 751 W/m² | - |
| 1777998738 | 26.11° C | 51% | 1014.4 hPa | 0 mm | 0.45 m/s, 147° | 711 W/m² | - |
| 1777998435 | 25.56° C | 52% | 1014.5 hPa | 0 mm | 0.89 m/s, 240° | 737 W/m² | - |
| 1777998132 | 26.11° C | 53% | 1014.5 hPa | 0 mm | 0.45 m/s, 71° | 725 W/m² | - |
| 1777997829 | 25.56° C | 55% | 1014.5 hPa | 0 mm | 0.45 m/s, 142° | 672 W/m² | - |
* Rain latest hour (hover to see other rain measurements)
** Current wind speed in m/s (hover to see current wind gust speed)